| time (UTC) | temp F | wind direction | speed MPH | gust MPH | rain 1hr in | rain 24hr in | rain mn in | humidity % | barometer mb |
| 20260508043029 | 46 | 145 | 1.0 | 2.0 | 0.00 | 0.04 | 0.00 | 90 | 1014.9 |
| 20260508042029 | 46 | 145 | 0.0 | 1.0 | 0.00 | 0.04 | 0.00 | 90 | 1014.8 |
| 20260508041029 | 46 | 145 | 0.0 | 1.0 | 0.00 | 0.04 | 0.01 | 90 | 1014.8 |
| 20260508040028 | 46 | 145 | 0.0 | 1.0 | 0.00 | 0.04 | 0.01 | 90 | 1014.6 |
| 20260508035034 | 46 | 145 | 0.0 | 3.0 | 0.00 | 0.04 | 0.01 | 90 | 1014.6 |
| 20260508034034 | 46 | 145 | 0.0 | 1.0 | 0.00 | 0.04 | 0.01 | 90 | 1014.6 |
| 20260508033034 | 46 | 145 | 0.0 | 0.0 | 0.00 | 0.04 | 0.01 | 89 | 1014.5 |
| 20260508032035 | 46 | 145 | 0.0 | 1.0 | 0.00 | 0.04 | 0.01 | 89 | 1014.5 |
| 20260508031038 | 46 | 145 | 0.0 | 2.0 | 0.00 | 0.04 | 0.01 | 89 | 1014.5 |
| 20260508030038 | 46 | 145 | 0.0 | 1.0 | 0.00 | 0.04 | 0.01 | 89 | 1014.5 |
| 20260508025038 | 45 | 145 | 0.0 | 3.0 | 0.00 | 0.04 | 0.01 | 89 | 1014.5 |
| 20260508024036 | 45 | 145 | 0.0 | 2.0 | 0.00 | 0.04 | 0.01 | 89 | 1014.5 |
| 20260508023037 | 46 | 145 | 1.0 | 3.0 | 0.00 | 0.04 | 0.01 | 89 | 1014.4 |
| 20260508022042 | 46 | 145 | 0.0 | 2.0 | 0.00 | 0.04 | 0.01 | 89 | 1014.4 |
| 20260508021042 | 46 | 145 | 0.0 | 1.0 | 0.00 | 0.04 | 0.01 | 89 | 1014.4 |
| 20260508020021 | 46 | 145 | 0.0 | 1.0 | 0.00 | 0.04 | 0.01 | 88 | 1014.5 |
| 20260508015040 | 46 | 145 | 0.0 | 0.0 | 0.00 | 0.04 | 0.01 | 88 | 1014.4 |
| 20260508013029 | 46 | 145 | 1.0 | 5.0 | 0.00 | 0.04 | 0.01 | 88 | 1014.3 |
| 20260508012029 | 46 | 145 | 0.0 | 2.0 | 0.00 | 0.04 | 0.01 | 88 | 1014.4 |
| 20260508011026 | 46 | 145 | 0.0 | 4.0 | 0.00 | 0.04 | 0.01 | 88 | 1014.5 |
| 20260508005042 | 46 | 145 | 0.0 | 1.0 | 0.00 | 0.04 | 0.01 | 88 | 1014.4 |
| 20260508004040 | 46 | 145 | 0.0 | 1.0 | 0.00 | 0.04 | 0.01 | 88 | 1014.4 |
| 20260508003041 | 46 | 145 | 0.0 | 3.0 | 0.00 | 0.04 | 0.01 | 87 | 1014.4 |
| 20260508002027 | 46 | 145 | 0.0 | 0.0 | 0.00 | 0.04 | 0.01 | 87 | 1014.3 |
| 20260508001025 | 47 | 145 | 0.0 | 1.0 | 0.00 | 0.04 | 0.01 | 87 | 1014.4 |
| 20260508000025 | 47 | 145 | 0.0 | 2.0 | 0.00 | 0.04 | 0.01 | 87 | 1014.4 |
| 20260507235027 | 47 | 145 | 0.0 | 3.0 | 0.00 | 0.04 | 0.01 | 87 | 1014.4 |
| 20260507234025 | 47 | 145 | 0.0 | 3.0 | 0.00 | 0.04 | 0.01 | 87 | 1014.3 |
| 20260507233030 | 47 | 145 | 0.0 | 2.0 | 0.00 | 0.04 | 0.01 | 87 | 1014.4 |
| 20260507232029 | 47 | 145 | 1.0 | 4.0 | 0.00 | 0.04 | 0.01 | 87 | 1014.3 |
| 20260507231029 | 47 | 145 | 0.0 | 2.0 | 0.00 | 0.08 | 0.01 | 87 | 1014.3 |
| 20260507230029 | 47 | 145 | 0.0 | 1.0 | 0.00 | 0.08 | 0.01 | 86 | 1014.2 |
| 20260507225033 | 47 | 145 | 0.0 | 1.0 | 0.00 | 0.08 | 0.01 | 86 | 1014.1 |
| 20260507223025 | 47 | 145 | 0.0 | 1.0 | 0.00 | 0.08 | 0.01 | 86 | 1014.1 |
| 20260507222025 | 47 | 145 | 0.0 | 2.0 | 0.00 | 0.08 | 0.01 | 86 | 1014.0 |
| 20260507221028 | 47 | 145 | 0.0 | 1.0 | 0.00 | 0.08 | 0.01 | 86 | 1014.0 |
| 20260507220028 | 47 | 145 | 0.0 | 1.0 | 0.00 | 0.08 | 0.01 | 85 | 1014.0 |
| 20260507215027 | 47 | 145 | 0.0 | 1.0 | 0.00 | 0.08 | 0.01 | 85 | 1014.1 |
| 20260507214028 | 47 | 145 | 0.0 | 1.0 | 0.00 | 0.08 | 0.01 | 85 | 1014.2 |
| 20260507213032 | 47 | 145 | 0.0 | 1.0 | 0.00 | 0.08 | 0.01 | 85 | 1013.9 |
| 20260507212033 | 47 | 145 | 0.0 | 2.0 | 0.00 | 0.08 | 0.01 | 85 | 1013.9 |
| 20260507211032 | 47 | 145 | 0.0 | 1.0 | 0.00 | 0.08 | 0.01 | 85 | 1013.8 |
| 20260507210033 | 47 | 145 | 0.0 | 1.0 | 0.00 | 0.08 | 0.01 | 85 | 1013.7 |
| 20260507205033 | 47 | 145 | 0.0 | 1.0 | 0.00 | 0.08 | 0.01 | 85 | 1013.6 |
| 20260507204034 | 47 | 145 | 0.0 | 2.0 | 0.00 | 0.08 | 0.01 | 84 | 1013.7 |
| 20260507203035 | 47 | 145 | 0.0 | 1.0 | 0.00 | 0.08 | 0.01 | 84 | 1013.6 |
| 20260507202035 | 47 | 145 | 0.0 | 2.0 | 0.00 | 0.08 | 0.01 | 84 | 1013.8 |
| 20260507201036 | 47 | 145 | 0.0 | 9.0 | 0.00 | 0.08 | 0.01 | 84 | 1013.7 |
| 20260507200040 | 47 | 145 | 0.0 | 1.0 | 0.00 | 0.08 | 0.01 | 84 | 1013.7 |
| 20260507195040 | 47 | 145 | 2.0 | 6.0 | 0.00 | 0.08 | 0.01 | 83 | 1013.6 |
| 20260507194041 | 47 | 145 | 0.0 | 2.0 | 0.00 | 0.08 | 0.01 | 83 | 1013.5 |
| 20260507193041 | 48 | 145 | 1.0 | 3.0 | 0.00 | 0.08 | 0.01 | 82 | 1013.4 |
| 20260507192025 | 48 | 145 | 0.0 | 2.0 | 0.00 | 0.08 | 0.01 | 82 | 1013.3 |
| 20260507191024 | 48 | 145 | 0.0 | 3.0 | 0.00 | 0.08 | 0.01 | 81 | 1013.2 |
| 20260507190024 | 48 | 145 | 0.0 | 4.0 | 0.00 | 0.08 | 0.01 | 81 | 1013.2 |
| 20260507185025 | 49 | 145 | 2.0 | 8.0 | 0.00 | 0.08 | 0.01 | 80 | 1013.0 |
| 20260507184028 | 49 | 145 | 0.0 | 4.0 | 0.00 | 0.08 | 0.01 | 80 | 1012.7 |
| 20260507183027 | 49 | 145 | 0.0 | 1.0 | 0.00 | 0.08 | 0.01 | 80 | 1012.5 |
| 20260507182026 | 49 | 145 | 0.0 | 2.0 | 0.00 | 0.08 | 0.01 | 80 | 1012.4 |
| 20260507181025 | 50 | 145 | 0.0 | 2.0 | 0.00 | 0.08 | 0.01 | 80 | 1012.3 |
| 20260507180026 | 50 | 145 | 1.0 | 5.0 | 0.00 | 0.08 | 0.01 | 79 | 1012.2 |
| 20260507175032 | 50 | 145 | 0.0 | 4.0 | 0.00 | 0.08 | 0.01 | 79 | 1012.2 |
| 20260507174030 | 50 | 145 | 0.0 | 3.0 | 0.00 | 0.08 | 0.01 | 79 | 1012.1 |
| 20260507173030 | 50 | 145 | 1.0 | 4.0 | 0.00 | 0.08 | 0.01 | 79 | 1012.0 |
| 20260507172031 | 51 | 145 | 0.0 | 2.0 | 0.00 | 0.08 | 0.01 | 79 | 1011.9 |
| 20260507171033 | 51 | 145 | 0.0 | 2.0 | 0.00 | 0.08 | 0.01 | 79 | 1011.7 |
| 20260507170034 | 51 | 145 | 0.0 | 6.0 | 0.00 | 0.08 | 0.01 | 78 | 1011.7 |
| 20260507165034 | 52 | 145 | 0.0 | 4.0 | 0.00 | 0.08 | 0.01 | 78 | 1011.4 |
| 20260507164028 | 52 | 145 | 1.0 | 3.0 | 0.00 | 0.08 | 0.01 | 78 | 1011.6 |
| 20260507163032 | 52 | 145 | 0.0 | 1.0 | 0.00 | 0.08 | 0.01 | 79 | 1011.5 |
| 20260507162034 | 52 | 145 | 1.0 | 4.0 | 0.00 | 0.08 | 0.01 | 78 | 1011.4 |
| 20260507161032 | 52 | 145 | 0.0 | 8.0 | 0.00 | 0.08 | 0.01 | 79 | 1011.4 |
| 20260507160031 | 52 | 145 | 1.0 | 4.0 | 0.00 | 0.08 | 0.01 | 79 | 1011.4 |
| 20260507155029 | 52 | 145 | 1.0 | 2.0 | 0.04 | 0.08 | 0.01 | 80 | 1011.4 |
| 20260507154032 | 52 | 145 | 0.0 | 4.0 | 0.04 | 0.08 | 0.01 | 80 | 1011.5 |
| 20260507153033 | 52 | 145 | 0.0 | 2.0 | 0.04 | 0.08 | 0.01 | 82 | 1011.6 |
| 20260507152032 | 52 | 145 | 0.0 | 3.0 | 0.04 | 0.08 | 0.01 | 84 | 1011.4 |
| 20260507151032 | 52 | 145 | 0.0 | 7.0 | 0.04 | 0.08 | 0.01 | 83 | 1011.4 |
| 20260507150036 | 52 | 145 | 0.0 | 3.0 | 0.04 | 0.08 | 0.01 | 83 | 1011.4 |
| 20260507145035 | 52 | 145 | 1.0 | 6.0 | 0.00 | 0.04 | 0.00 | 80 | 1011.7 |
| 20260507144033 | 53 | 145 | 0.0 | 2.0 | 0.00 | 0.04 | 0.00 | 79 | 1011.6 |
| 20260507143035 | 53 | 145 | 0.0 | 3.0 | 0.00 | 0.04 | 0.00 | 78 | 1011.7 |
| 20260507142039 | 53 | 145 | 1.0 | 5.0 | 0.00 | 0.04 | 0.00 | 77 | 1011.4 |
| 20260507141039 | 53 | 145 | 0.0 | 5.0 | 0.00 | 0.04 | 0.00 | 77 | 1011.5 |
| 20260507140035 | 53 | 145 | 0.0 | 2.0 | 0.00 | 0.04 | 0.00 | 77 | 1011.4 |
| 20260507135037 | 53 | 145 | 0.0 | 1.0 | 0.00 | 0.04 | 0.00 | 77 | 1011.3 |
| 20260507134036 | 53 | 145 | 1.0 | 8.0 | 0.00 | 0.04 | 0.00 | 78 | 1011.2 |
| 20260507133040 | 53 | 145 | 1.0 | 7.0 | 0.00 | 0.04 | 0.00 | 77 | 1011.3 |
| 20260507132040 | 53 | 145 | 1.0 | 4.0 | 0.00 | 0.04 | 0.00 | 77 | 1011.0 |
| 20260507131039 | 53 | 145 | 2.0 | 6.0 | 0.00 | 0.08 | 0.00 | 77 | 1011.1 |
| 20260507130040 | 53 | 145 | 1.0 | 5.0 | 0.00 | 0.08 | 0.00 | 77 | 1011.1 |
| 20260507125025 | 53 | 145 | 0.0 | 2.0 | 0.00 | 0.08 | 0.00 | 78 | 1011.1 |
| 20260507124024 | 52 | 145 | 1.0 | 7.0 | 0.00 | 0.08 | 0.00 | 78 | 1011.1 |
| 20260507123024 | 53 | 145 | 0.0 | 1.0 | 0.00 | 0.08 | 0.00 | 78 | 1010.9 |
| 20260507122023 | 52 | 145 | 0.0 | 7.0 | 0.00 | 0.08 | 0.00 | 80 | 1010.8 |
| 20260507121025 | 52 | 145 | 2.0 | 8.0 | 0.00 | 0.08 | 0.00 | 78 | 1010.7 |
| 20260507120027 | 53 | 145 | 3.0 | 6.0 | 0.00 | 0.08 | 0.00 | 77 | 1010.6 |
| 20260507115025 | 53 | 145 | 3.0 | 7.0 | 0.00 | 0.08 | 0.00 | 76 | 1010.5 |
| 20260507114025 | 53 | 145 | 0.0 | 5.0 | 0.00 | 0.08 | 0.00 | 78 | 1010.5 |
| 20260507113030 | 53 | 145 | 0.0 | 4.0 | 0.00 | 0.08 | 0.00 | 79 | 1010.4 |
| 20260507112031 | 52 | 145 | 0.0 | 2.0 | 0.00 | 0.08 | 0.00 | 81 | 1010.2 |
| 20260507111029 | 52 | 145 | 3.0 | 9.0 | 0.00 | 0.08 | 0.00 | 81 | 1010.3 |
| 20260507105026 | 52 | 145 | 0.0 | 5.0 | 0.00 | 0.08 | 0.00 | 82 | 1010.3 |
| 20260507104026 | 51 | 145 | 1.0 | 7.0 | 0.00 | 0.08 | 0.00 | 82 | 1010.2 |
| 20260507103028 | 51 | 145 | 0.0 | 7.0 | 0.00 | 0.08 | 0.00 | 83 | 1010.1 |
| 20260507101031 | 51 | 145 | 0.0 | 4.0 | 0.00 | 0.08 | 0.00 | 83 | 1009.9 |
| 20260507100036 | 51 | 145 | 0.0 | 1.0 | 0.00 | 0.08 | 0.00 | 84 | 1009.7 |
| 20260507095037 | 50 | 145 | 0.0 | 8.0 | 0.00 | 0.08 | 0.00 | 86 | 1009.8 |
| 20260507094036 | 50 | 145 | 0.0 | 4.0 | 0.00 | 0.08 | 0.00 | 86 | 1009.6 |
| 20260507093029 | 50 | 145 | 2.0 | 4.0 | 0.00 | 0.08 | 0.00 | 87 | 1009.7 |
| 20260507092027 | 50 | 145 | 1.0 | 5.0 | 0.00 | 0.08 | 0.00 | 89 | 1009.7 |
| 20260507091024 | 49 | 145 | 1.0 | 6.0 | 0.00 | 0.08 | 0.00 | 91 | 1009.5 |
| 20260507090024 | 48 | 145 | 4.0 | 8.0 | 0.00 | 0.08 | 0.00 | 93 | 1009.4 |
| 20260507085024 | 48 | 145 | 0.0 | 5.0 | 0.00 | 0.08 | 0.00 | 95 | 1009.2 |
| 20260507084026 | 47 | 145 | 2.0 | 9.0 | 0.00 | 0.08 | 0.00 | 96 | 1009.0 |
| 20260507083027 | 47 | 144 | 2.0 | 10.0 | 0.00 | 0.08 | 0.00 | 96 | 1008.6 |
| 20260507082026 | 47 | 145 | 0.0 | 4.0 | 0.00 | 0.08 | 0.00 | 97 | 1008.5 |
| 20260507081025 | 47 | 145 | 0.0 | 5.0 | 0.00 | 0.08 | 0.00 | 97 | 1008.5 |
| 20260507080025 | 46 | 145 | 3.0 | 7.0 | 0.00 | 0.08 | 0.00 | 97 | 1008.3 |
| 20260507075031 | 46 | 145 | 1.0 | 5.0 | 0.00 | 0.08 | 0.00 | 97 | 1008.4 |
| 20260507074030 | 46 | 145 | 1.0 | 5.0 | 0.00 | 0.08 | 0.00 | 97 | 1008.2 |
| 20260507073031 | 46 | 145 | 0.0 | 7.0 | 0.00 | 0.08 | 0.00 | 97 | 1008.1 |
| 20260507072032 | 46 | 145 | 1.0 | 7.0 | 0.00 | 0.08 | 0.00 | 97 | 1007.9 |
| 20260507071037 | 45 | 145 | 2.0 | 6.0 | 0.00 | 0.08 | 0.00 | 97 | 1008.0 |
| 20260507070036 | 46 | 145 | 2.0 | 8.0 | 0.00 | 0.08 | 0.00 | 97 | 1008.0 |
| 20260507065038 | 45 | 145 | 2.0 | 7.0 | 0.00 | 0.08 | 0.00 | 97 | 1008.0 |
| 20260507064039 | 46 | 145 | 0.0 | 9.0 | 0.00 | 0.08 | 0.00 | 97 | 1007.9 |
| 20260507063040 | 46 | 146 | 1.0 | 7.0 | 0.00 | 0.08 | 0.00 | 97 | 1007.9 |
| 20260507062040 | 46 | 146 | 0.0 | 6.0 | 0.00 | 0.08 | 0.00 | 97 | 1007.8 |
| 20260507061038 | 46 | 146 | 1.0 | 6.0 | 0.00 | 0.08 | 0.00 | 97 | 1007.8 |
| 20260507060038 | 46 | 146 | 0.0 | 4.0 | 0.00 | 0.08 | 0.00 | 97 | 1007.6 |
| 20260507055037 | 46 | 146 | 0.0 | 2.0 | 0.00 | 0.08 | 0.00 | 97 | 1007.4 |
| 20260507054040 | 45 | 146 | 0.0 | 5.0 | 0.00 | 0.08 | 0.00 | 97 | 1007.3 |